TimeMST,TemperatureF,Dew PointF,Humidity,Sea Level PressureIn,VisibilityMPH,Wind Direction,Wind SpeedMPH,Gust SpeedMPH,PrecipitationIn,Events,Conditions,WindDirDegrees,DateUTC
12:55 AM,78.8,55.4,44,29.92,10.0,WSW,6.9,-,N/A,,Mostly Cloudy,250,2013-08-14 07:55:00
1:55 AM,78.8,55.4,44,29.91,10.0,SW,13.8,-,N/A,,Mostly Cloudy,230,2013-08-14 08:55:00
2:55 AM,73.4,57.2,57,29.92,10.0,East,4.6,-,N/A,,Overcast,90,2013-08-14 09:55:00
3:55 AM,71.6,57.2,60,29.92,10.0,WNW,4.6,-,N/A,,Mostly Cloudy,300,2013-08-14 10:55:00
4:55 AM,71.6,59.0,64,29.94,10.0,WSW,3.5,-,N/A,,Mostly Cloudy,240,2013-08-14 11:55:00
5:55 AM,71.6,60.8,69,29.96,10.0,West,5.8,-,N/A,,Mostly Cloudy,260,2013-08-14 12:55:00
6:52 AM,73.4,59.0,61,29.97,10.0,WSW,5.8,-,N/A,,Mostly Cloudy,250,2013-08-14 13:52:00
6:55 AM,73.4,59.0,61,29.97,10.0,WSW,5.8,-,N/A,,Mostly Cloudy,250,2013-08-14 13:55:00
7:55 AM,78.8,60.8,54,29.97,10.0,West,4.6,-,N/A,,Mostly Cloudy,280,2013-08-14 14:55:00
8:55 AM,80.6,59.0,48,29.98,10.0,Calm,Calm,-,N/A,,Mostly Cloudy,0,2013-08-14 15:55:00
9:55 AM,84.2,53.6,35,29.98,10.0,ENE,5.8,-,N/A,,Mostly Cloudy,70,2013-08-14 16:55:00
10:55 AM,87.8,53.6,31,29.96,10.0,Variable,5.8,-,N/A,,Mostly Cloudy,0,2013-08-14 17:55:00
11:55 AM,89.6,53.6,29,29.95,10.0,SE,6.9,-,N/A,,Mostly Cloudy,140,2013-08-14 18:55:00
11:57 AM,91.4,55.4,29,30.16,10.0,ESE,9.2,-,N/A,Thunderstorm,Mostly Cloudy,110,2013-08-14 18:57:00
12:55 PM,91.4,55.4,29,29.92,10.0,Calm,Calm,-,N/A,Thunderstorm,Mostly Cloudy,0,2013-08-14 19:55:00
1:55 PM,91.4,53.6,28,29.90,10.0,Variable,3.5,-,N/A,,Mostly Cloudy,0,2013-08-14 20:55:00
2:37 PM,87.8,55.4,33,30.11,10.0,West,13.8,-,N/A,Thunderstorm,Mostly Cloudy,270,2013-08-14 21:37:00
2:55 PM,87.8,55.4,33,29.90,10.0,WSW,15.0,-,N/A,Thunderstorm,Thunderstorm,250,2013-08-14 21:55:00
3:35 PM,80.6,59.0,48,30.14,10.0,West,8.1,-,N/A,Rain-Thunderstorm,Light Thunderstorms and Rain,260,2013-08-14 22:35:00
3:55 PM,77.0,60.8,57,29.95,10.0,ESE,13.8,18.4,N/A,Rain-Thunderstorm,Light Thunderstorms and Rain,120,2013-08-14 22:55:00
4:38 PM,78.8,66.2,65,30.12,10.0,South,5.8,-,0.02,Rain,Light Rain,190,2013-08-14 23:38:00
4:56 PM,78.1,66.0,66,29.93,10.0,South,12.7,-,0.03,Rain,Light Rain,180,2013-08-14 23:56:00
5:29 PM,77.0,62.6,61,30.10,10.0,SSE,16.1,-,0.00,Thunderstorm,Thunderstorm,160,2013-08-15 00:29:00
5:56 PM,79.0,60.1,52,29.91,10.0,South,11.5,-,0.00,Thunderstorm,Thunderstorm,170,2013-08-15 00:56:00
6:30 PM,78.8,57.2,47,30.12,10.0,SW,20.7,27.6,N/A,,Clear,230,2013-08-15 01:30:00
6:56 PM,75.9,55.0,48,29.93,10.0,SW,16.1,24.2,N/A,,Clear,220,2013-08-15 01:56:00
7:56 PM,75.0,57.9,55,29.93,10.0,NNE,4.6,-,N/A,,Clear,30,2013-08-15 02:56:00
8:16 PM,73.4,60.8,65,30.14,10.0,NNE,11.5,-,N/A,Thunderstorm,Thunderstorm,30,2013-08-15 03:16:00
8:56 PM,73.9,57.0,55,30.01,10.0,NE,12.7,21.9,N/A,Thunderstorm,Thunderstorm,50,2013-08-15 03:56:00
9:31 PM,73.4,59.0,61,30.23,10.0,NE,9.2,-,N/A,,Mostly Cloudy,40,2013-08-15 04:31:00
9:56 PM,72.0,59.0,64,30.03,10.0,NE,4.6,-,N/A,,Clear,40,2013-08-15 04:56:00
10:55 PM,71.6,59.0,64,30.03,10.0,West,4.6,-,N/A,,Overcast,270,2013-08-15 05:55:00
11:55 PM,73.4,59.0,61,29.99,10.0,SSE,5.8,-,N/A,,Overcast,150,2013-08-15 06:55:00